Tracking 19250 objects as of 23-Sep-2018
HD Live streaming from Space Station
objects crossing your sky now

INTERCOSMOS 25

Track INTERCOSMOS 25 now!
10-day predictions
INTERCOSMOS 25 is classified as:


NORAD ID: 21819
Int'l Code: 1991-086A
Perigee: 447.3 km
Apogee: 2,884.7 km
Inclination: 82.6 °
Period: 119.5 minutes
Semi major axis: 8037 km
RCS: 7.3989 m2 (large)
Launch date: December 18, 1991
Source: Commonwealth of Independent States (former USSR) (CIS)
Launch site: PLESETSK MISSILE AND SPACE COMPLEX (PKMTR)
aabbcc
Your satellite tracking list
Your tracking list is empty




NASA's NSSDC Master Catalog

Two Line Element Set (TLE):
1 21819U 91086A   18265.59703589 +.00000235 +00000-0 +43875-4 0  9994
2 21819 082.5933 145.7565 1516396 182.3497 176.9827 12.04928502167941
Source of the keplerian elements: AFSPC